Year,Month,Day,Hour,Minute,Value (Times are PST for temperature in C)
2015,08,09,00,00,15.80
2015,08,09,00,01,15.80
2015,08,09,00,02,15.80
2015,08,09,00,03,15.80
2015,08,09,00,04,15.80
2015,08,09,00,05,15.80
2015,08,09,00,06,15.90
2015,08,09,00,07,15.90
2015,08,09,00,08,15.90
2015,08,09,00,09,15.90
2015,08,09,00,10,15.90
2015,08,09,00,11,15.90
2015,08,09,00,12,15.90
2015,08,09,00,13,15.90
2015,08,09,00,14,15.90
2015,08,09,00,15,15.90
2015,08,09,00,16,15.90
2015,08,09,00,17,15.90
2015,08,09,00,18,15.90
2015,08,09,00,19,15.90
2015,08,09,00,20,15.80
2015,08,09,00,21,15.80
2015,08,09,00,22,15.80
2015,08,09,00,23,15.80
2015,08,09,00,24,15.80
2015,08,09,00,25,15.80
2015,08,09,00,26,15.80
2015,08,09,00,27,15.70
2015,08,09,00,28,15.70
2015,08,09,00,29,15.60
2015,08,09,00,30,15.60
2015,08,09,00,31,15.50
2015,08,09,00,32,15.40
2015,08,09,00,33,15.40
2015,08,09,00,34,15.40
2015,08,09,00,35,15.40
2015,08,09,00,36,15.40
2015,08,09,00,37,15.50
2015,08,09,00,38,15.50
2015,08,09,00,39,15.60
2015,08,09,00,40,15.50
2015,08,09,00,41,15.50
2015,08,09,00,42,15.50
2015,08,09,00,43,15.50
2015,08,09,00,44,15.50
2015,08,09,00,45,15.60
2015,08,09,00,46,15.60
2015,08,09,00,47,15.60
2015,08,09,00,48,15.60
2015,08,09,00,49,15.60
2015,08,09,00,50,15.70
2015,08,09,00,51,15.70
2015,08,09,00,52,15.70
2015,08,09,00,53,15.80
2015,08,09,00,54,15.80
2015,08,09,00,55,15.90
2015,08,09,00,56,15.90
2015,08,09,00,57,16.00
2015,08,09,00,58,16.00
2015,08,09,00,59,16.00
2015,08,09,01,00,16.10
2015,08,09,01,01,16.10
2015,08,09,01,02,16.10
2015,08,09,01,03,16.10
2015,08,09,01,04,16.10
2015,08,09,01,05,16.10
2015,08,09,01,06,16.10
2015,08,09,01,07,16.10
2015,08,09,01,08,16.10
2015,08,09,01,09,16.10
2015,08,09,01,10,16.10
2015,08,09,01,11,16.10
2015,08,09,01,12,16.10
2015,08,09,01,13,16.10
2015,08,09,01,14,16.10
2015,08,09,01,15,16.00
2015,08,09,01,16,16.00
2015,08,09,01,17,16.00
2015,08,09,01,18,16.10
2015,08,09,01,19,16.10
2015,08,09,01,20,16.10
2015,08,09,01,21,16.10
2015,08,09,01,22,16.10
2015,08,09,01,23,16.10
2015,08,09,01,24,16.10
2015,08,09,01,25,16.10
2015,08,09,01,26,16.10
2015,08,09,01,27,16.00
2015,08,09,01,28,16.00
2015,08,09,01,29,16.00
2015,08,09,01,30,16.00
2015,08,09,01,31,16.00
2015,08,09,01,32,16.10
2015,08,09,01,33,16.10
2015,08,09,01,34,16.10
2015,08,09,01,35,16.10
2015,08,09,01,36,16.20
2015,08,09,01,37,16.20
2015,08,09,01,38,16.30
2015,08,09,01,39,16.30
2015,08,09,01,40,16.30
2015,08,09,01,41,16.30
2015,08,09,01,42,16.40
2015,08,09,01,43,16.40
2015,08,09,01,44,16.50
2015,08,09,01,45,16.50
2015,08,09,01,46,16.60
2015,08,09,01,47,16.60
2015,08,09,01,48,16.70
2015,08,09,01,49,16.70
2015,08,09,01,50,16.70
2015,08,09,01,51,16.70
2015,08,09,01,52,16.80
2015,08,09,01,53,16.80
2015,08,09,01,54,16.80
2015,08,09,01,55,16.80
2015,08,09,01,56,16.80
2015,08,09,01,57,16.80
2015,08,09,01,58,16.80
2015,08,09,01,59,16.80
2015,08,09,02,00,16.80
2015,08,09,02,01,16.80
2015,08,09,02,02,16.80
2015,08,09,02,03,16.70
2015,08,09,02,04,16.70
2015,08,09,02,05,16.70
2015,08,09,02,06,16.60
2015,08,09,02,07,16.60
2015,08,09,02,08,16.50
2015,08,09,02,09,16.50
2015,08,09,02,10,16.50
2015,08,09,02,11,16.40
2015,08,09,02,12,16.40
2015,08,09,02,13,16.50
2015,08,09,02,14,16.50
2015,08,09,02,15,16.40
2015,08,09,02,16,16.40
2015,08,09,02,17,16.40
2015,08,09,02,18,16.30
2015,08,09,02,19,16.20
2015,08,09,02,20,16.10
2015,08,09,02,21,16.00
2015,08,09,02,22,15.90
2015,08,09,02,23,15.80
2015,08,09,02,24,15.80
2015,08,09,02,25,15.70
2015,08,09,02,26,15.60
2015,08,09,02,27,15.60
2015,08,09,02,28,15.50
2015,08,09,02,29,15.40
2015,08,09,02,30,15.40
2015,08,09,02,31,15.30
2015,08,09,02,32,15.30
2015,08,09,02,33,15.30
2015,08,09,02,34,15.20
2015,08,09,02,35,15.20
2015,08,09,02,36,15.20
2015,08,09,02,37,15.20
2015,08,09,02,38,15.20
2015,08,09,02,39,15.20
2015,08,09,02,40,15.20
2015,08,09,02,41,15.20
2015,08,09,02,42,15.20
2015,08,09,02,43,15.20
2015,08,09,02,44,15.20
2015,08,09,02,45,15.20
2015,08,09,02,46,15.20
2015,08,09,02,47,15.10
2015,08,09,02,48,15.10
2015,08,09,02,49,15.10
2015,08,09,02,50,15.10
2015,08,09,02,51,15.10
2015,08,09,02,52,15.10
2015,08,09,02,53,15.10
2015,08,09,02,54,15.10
2015,08,09,02,55,15.10
2015,08,09,02,56,15.10
2015,08,09,02,57,15.10
2015,08,09,02,58,15.10
2015,08,09,02,59,15.10
2015,08,09,03,00,15.10
2015,08,09,03,01,15.10
2015,08,09,03,02,15.10
2015,08,09,03,03,15.20
2015,08,09,03,04,15.20
2015,08,09,03,05,15.30
2015,08,09,03,06,15.30
2015,08,09,03,07,15.30
2015,08,09,03,08,15.30
2015,08,09,03,09,15.40
2015,08,09,03,10,15.40
2015,08,09,03,11,15.40
2015,08,09,03,12,15.40
2015,08,09,03,13,15.40
2015,08,09,03,14,15.40
2015,08,09,03,15,15.50
2015,08,09,03,16,15.50
2015,08,09,03,17,15.50
2015,08,09,03,18,15.50
2015,08,09,03,19,15.50
2015,08,09,03,20,15.50
2015,08,09,03,21,15.50
2015,08,09,03,22,15.50
2015,08,09,03,23,15.50
2015,08,09,03,24,15.50
2015,08,09,03,25,15.50
2015,08,09,03,26,15.50
2015,08,09,03,27,15.50
2015,08,09,03,28,15.50
2015,08,09,03,29,15.50
2015,08,09,03,30,15.50
2015,08,09,03,31,15.50
2015,08,09,03,32,15.50
2015,08,09,03,33,15.40
2015,08,09,03,34,15.40
2015,08,09,03,35,15.40
2015,08,09,03,36,15.40
2015,08,09,03,37,15.40
2015,08,09,03,38,15.30
2015,08,09,03,39,15.30
2015,08,09,03,40,15.20
2015,08,09,03,41,15.20
2015,08,09,03,42,15.10
2015,08,09,03,43,15.10
2015,08,09,03,44,15.00
2015,08,09,03,45,15.00
2015,08,09,03,46,15.00
2015,08,09,03,47,14.90
2015,08,09,03,48,14.90
2015,08,09,03,49,14.90
2015,08,09,03,50,14.90
2015,08,09,03,51,14.90
2015,08,09,03,52,14.80
2015,08,09,03,53,14.80
2015,08,09,03,54,14.80
2015,08,09,03,55,14.80
2015,08,09,03,56,14.80
2015,08,09,03,57,14.70
2015,08,09,03,58,14.70
2015,08,09,03,59,14.70
2015,08,09,04,00,14.70
2015,08,09,04,01,14.70
2015,08,09,04,02,14.60
2015,08,09,04,03,14.60
2015,08,09,05,02,14.40
2015,08,09,05,03,14.40
2015,08,09,05,04,14.40
2015,08,09,05,05,14.40
2015,08,09,05,06,14.40
2015,08,09,05,07,14.40
2015,08,09,05,08,14.40
2015,08,09,05,09,14.40
2015,08,09,05,10,14.40
2015,08,09,05,11,14.30
2015,08,09,05,12,14.30
2015,08,09,05,13,14.30
2015,08,09,05,14,14.30
2015,08,09,05,15,14.30
2015,08,09,05,16,14.30
2015,08,09,05,17,14.30
2015,08,09,05,18,14.30
2015,08,09,05,19,14.30
2015,08,09,05,20,14.20
2015,08,09,05,21,14.20
2015,08,09,05,22,14.20
2015,08,09,05,23,14.20
2015,08,09,05,24,14.20
2015,08,09,05,25,14.20
2015,08,09,05,26,14.20
2015,08,09,05,27,14.20
2015,08,09,05,28,14.20
2015,08,09,05,29,14.20
2015,08,09,05,30,14.20
2015,08,09,05,31,14.20
2015,08,09,05,32,14.20
2015,08,09,05,33,14.20
2015,08,09,05,34,14.20
2015,08,09,05,35,14.20
2015,08,09,05,36,14.20
2015,08,09,05,37,14.20
2015,08,09,05,38,14.20
2015,08,09,05,39,14.20
2015,08,09,05,40,14.20
2015,08,09,05,41,14.20
2015,08,09,05,42,14.20
2015,08,09,05,43,14.20
2015,08,09,05,44,14.20
2015,08,09,05,45,14.20
2015,08,09,05,46,14.20
2015,08,09,05,47,14.20
2015,08,09,05,48,14.10
2015,08,09,05,49,14.10
2015,08,09,05,50,14.10
2015,08,09,05,51,14.10
2015,08,09,05,52,14.10
2015,08,09,05,53,14.10
2015,08,09,05,54,14.10
2015,08,09,05,55,14.10
2015,08,09,05,56,14.10
2015,08,09,05,57,14.00
2015,08,09,05,58,14.00
2015,08,09,05,59,14.00
2015,08,09,06,00,14.00
2015,08,09,06,01,14.00
2015,08,09,06,02,14.00
2015,08,09,06,03,14.00
2015,08,09,06,04,14.00
2015,08,09,06,05,14.00
2015,08,09,06,06,14.00
2015,08,09,06,07,14.00
2015,08,09,06,08,14.00
2015,08,09,06,09,14.00
2015,08,09,06,10,13.90
2015,08,09,06,11,13.90
2015,08,09,06,12,13.90
2015,08,09,06,13,13.90
2015,08,09,06,14,13.90
2015,08,09,06,15,13.90
2015,08,09,06,16,13.90
2015,08,09,06,17,13.90
2015,08,09,06,18,13.90
2015,08,09,06,19,13.90
2015,08,09,06,20,13.90
2015,08,09,06,21,13.90
2015,08,09,06,22,13.90
2015,08,09,06,23,13.90
2015,08,09,06,24,13.90
2015,08,09,06,25,13.90
2015,08,09,06,26,14.00
2015,08,09,06,27,14.00
2015,08,09,06,28,14.00
2015,08,09,06,29,13.90
2015,08,09,06,30,13.90
2015,08,09,06,31,13.90
2015,08,09,06,32,13.90
2015,08,09,06,33,13.90
2015,08,09,06,34,14.00
2015,08,09,06,35,14.00
2015,08,09,06,36,14.00
2015,08,09,06,37,14.00
2015,08,09,06,38,14.00
2015,08,09,06,39,14.00
2015,08,09,06,40,14.00
2015,08,09,06,41,13.90
2015,08,09,06,42,13.90
2015,08,09,06,43,13.90
2015,08,09,06,44,14.00
2015,08,09,06,45,14.00
2015,08,09,06,46,14.00
2015,08,09,06,47,14.00
2015,08,09,06,48,14.00
2015,08,09,06,49,14.00
2015,08,09,06,50,14.00
2015,08,09,06,51,14.00
2015,08,09,06,52,14.10
2015,08,09,06,53,14.10
2015,08,09,06,54,14.10
2015,08,09,06,55,14.10
2015,08,09,06,56,14.10
2015,08,09,06,57,14.20
2015,08,09,06,58,14.20
2015,08,09,06,59,14.20
2015,08,09,07,00,14.30
2015,08,09,07,01,14.30
2015,08,09,07,02,14.40
2015,08,09,07,03,14.40
2015,08,09,07,04,14.40
2015,08,09,07,05,14.50
2015,08,09,07,06,14.50
2015,08,09,07,07,14.50
2015,08,09,07,08,14.50
2015,08,09,07,09,14.50
2015,08,09,07,10,14.50
2015,08,09,07,11,14.50
2015,08,09,07,12,14.50
2015,08,09,07,13,14.50
2015,08,09,07,14,14.60
2015,08,09,07,15,14.60
2015,08,09,07,16,14.60
2015,08,09,07,17,14.60
2015,08,09,07,18,14.60
2015,08,09,07,19,14.70
2015,08,09,07,20,14.70
2015,08,09,07,21,14.70
2015,08,09,07,22,14.70
2015,08,09,07,23,14.70
2015,08,09,07,24,14.80
2015,08,09,07,25,14.80
2015,08,09,07,26,14.80
2015,08,09,07,27,14.80
2015,08,09,07,28,14.80
2015,08,09,07,29,14.80
2015,08,09,07,30,14.80
2015,08,09,07,31,14.80
2015,08,09,07,32,14.80
2015,08,09,07,33,14.90
2015,08,09,07,34,14.90
2015,08,09,07,35,14.90
2015,08,09,07,36,14.90
2015,08,09,07,37,14.90
2015,08,09,07,38,14.90
2015,08,09,07,39,14.90
2015,08,09,07,40,15.00
2015,08,09,07,41,15.00
2015,08,09,07,42,15.10
2015,08,09,07,43,15.10
2015,08,09,07,44,15.10
2015,08,09,07,45,15.10
2015,08,09,07,46,15.10
2015,08,09,07,47,15.10
2015,08,09,07,48,15.10
2015,08,09,07,49,15.10
2015,08,09,07,50,15.20
2015,08,09,07,51,15.20
2015,08,09,07,52,15.20
2015,08,09,07,53,15.20
2015,08,09,07,54,15.20
2015,08,09,07,55,15.20
2015,08,09,07,56,15.20
2015,08,09,07,57,15.20
2015,08,09,07,58,15.30
2015,08,09,07,59,15.30
2015,08,09,08,00,15.30
2015,08,09,08,01,15.30
2015,08,09,08,02,15.30
2015,08,09,08,03,15.30
2015,08,09,08,04,15.30
2015,08,09,08,05,15.40
2015,08,09,08,06,15.40
2015,08,09,08,07,15.40
2015,08,09,08,08,15.40
2015,08,09,08,09,15.40
2015,08,09,08,10,15.40
2015,08,09,08,11,15.40
2015,08,09,08,12,15.40
2015,08,09,08,13,15.40
2015,08,09,08,14,15.50
2015,08,09,08,15,15.50
2015,08,09,08,16,15.60
2015,08,09,08,17,15.60
2015,08,09,08,18,15.70
2015,08,09,08,19,15.70
2015,08,09,08,20,15.70
2015,08,09,08,21,15.70
2015,08,09,08,22,15.70
2015,08,09,08,23,15.70
2015,08,09,08,24,15.80
2015,08,09,08,25,15.80
2015,08,09,08,26,15.80
2015,08,09,08,27,15.80
2015,08,09,08,28,15.80
2015,08,09,08,29,15.80
2015,08,09,08,30,15.80
2015,08,09,08,31,15.80
2015,08,09,08,32,15.80
2015,08,09,08,33,15.80
2015,08,09,08,34,15.80
2015,08,09,08,35,15.80
2015,08,09,08,36,15.80
2015,08,09,08,37,15.80
2015,08,09,08,38,15.70
2015,08,09,08,39,15.80
2015,08,09,08,40,15.80
2015,08,09,08,41,15.80
2015,08,09,08,42,15.80
2015,08,09,08,43,15.80
2015,08,09,08,44,15.80
2015,08,09,08,45,15.80
2015,08,09,08,46,15.80
2015,08,09,08,47,15.80
2015,08,09,08,48,15.80
2015,08,09,08,49,15.80
2015,08,09,08,50,15.80
2015,08,09,08,51,15.80
2015,08,09,08,52,15.80
2015,08,09,08,53,15.80
2015,08,09,08,54,15.80
2015,08,09,08,55,15.80
2015,08,09,08,56,15.80
2015,08,09,08,57,15.80
2015,08,09,08,58,15.80
2015,08,09,08,59,15.90
2015,08,09,09,00,15.90
2015,08,09,09,01,15.90
2015,08,09,09,02,15.90
2015,08,09,09,03,15.90
2015,08,09,09,04,15.90
2015,08,09,09,05,16.00
2015,08,09,09,06,16.10
2015,08,09,09,07,16.10
2015,08,09,09,08,16.10
2015,08,09,09,09,16.10
2015,08,09,09,10,16.20
2015,08,09,09,11,16.20
2015,08,09,09,12,16.20
2015,08,09,09,13,16.20
2015,08,09,09,14,16.20
2015,08,09,09,15,16.30
2015,08,09,09,16,16.30
2015,08,09,09,17,16.30
2015,08,09,09,18,16.30
2015,08,09,09,19,16.30
2015,08,09,09,20,16.40
2015,08,09,09,21,16.40
2015,08,09,09,22,16.40
2015,08,09,09,23,16.50
2015,08,09,09,24,16.50
2015,08,09,09,25,16.60
2015,08,09,09,26,16.60
2015,08,09,09,27,16.60
2015,08,09,09,28,16.60
2015,08,09,09,29,16.60
2015,08,09,09,30,16.60
2015,08,09,09,31,16.70
2015,08,09,09,32,16.70
2015,08,09,09,33,16.70
2015,08,09,09,34,16.80
2015,08,09,09,35,16.80
2015,08,09,09,36,16.90
2015,08,09,09,37,16.90
2015,08,09,09,38,17.00
2015,08,09,09,39,17.00
2015,08,09,09,40,17.00
2015,08,09,09,41,17.00
2015,08,09,09,42,17.10
2015,08,09,09,43,17.10
2015,08,09,09,44,17.10
2015,08,09,09,45,17.10
2015,08,09,09,46,17.10
2015,08,09,09,47,17.10
2015,08,09,09,48,17.20
2015,08,09,09,49,17.20
2015,08,09,09,50,17.20
2015,08,09,09,51,17.20
2015,08,09,09,52,17.30
2015,08,09,09,53,17.30
2015,08,09,09,54,17.30
2015,08,09,09,55,17.30
2015,08,09,09,56,17.30
2015,08,09,09,57,17.30
2015,08,09,09,58,17.40
2015,08,09,09,59,17.40
2015,08,09,10,00,17.40
2015,08,09,10,01,17.50
2015,08,09,10,02,17.50
2015,08,09,10,03,17.60
2015,08,09,10,04,17.70
2015,08,09,10,05,17.80
2015,08,09,10,06,17.80
2015,08,09,10,07,17.90
2015,08,09,10,08,17.90
2015,08,09,10,09,17.90
2015,08,09,10,10,18.00
2015,08,09,10,11,18.00
2015,08,09,10,12,18.10
2015,08,09,10,13,18.20
2015,08,09,10,14,18.30
2015,08,09,10,15,18.40
2015,08,09,10,16,18.40
2015,08,09,10,17,18.40
2015,08,09,10,18,18.50
2015,08,09,10,19,18.40
2015,08,09,10,20,18.40
2015,08,09,10,21,18.30
2015,08,09,10,22,18.30
2015,08,09,10,23,18.30
2015,08,09,10,24,18.30
2015,08,09,10,25,18.30
2015,08,09,10,26,18.30
2015,08,09,10,27,18.20
2015,08,09,10,28,18.10
2015,08,09,10,29,18.10
2015,08,09,10,30,18.00
2015,08,09,10,31,18.00
2015,08,09,10,32,18.00
2015,08,09,10,33,18.10
2015,08,09,10,34,18.10
2015,08,09,10,35,18.20
2015,08,09,10,36,18.20
2015,08,09,10,37,18.20
2015,08,09,10,38,18.20
2015,08,09,10,39,18.20
2015,08,09,10,40,18.10
2015,08,09,10,41,18.00
2015,08,09,10,42,17.90
2015,08,09,10,43,17.90
2015,08,09,10,44,17.90
2015,08,09,10,45,17.90
2015,08,09,10,46,17.90
2015,08,09,10,47,17.90
2015,08,09,10,48,17.80
2015,08,09,10,49,17.80
2015,08,09,10,50,17.80
2015,08,09,10,51,17.70
2015,08,09,10,52,17.70
2015,08,09,10,53,17.70
2015,08,09,10,54,17.70
2015,08,09,10,55,17.60
2015,08,09,10,56,17.70
2015,08,09,10,57,17.80
2015,08,09,10,58,17.80
2015,08,09,10,59,17.80
2015,08,09,11,00,17.80
2015,08,09,11,01,17.80
2015,08,09,11,02,17.80
2015,08,09,11,03,17.90
2015,08,09,11,04,18.00
2015,08,09,11,05,18.00
2015,08,09,11,06,18.10
2015,08,09,11,07,18.20
2015,08,09,11,08,18.30
2015,08,09,11,09,18.30
2015,08,09,11,10,18.30
2015,08,09,11,11,18.30
2015,08,09,11,12,18.30
2015,08,09,11,13,18.20
2015,08,09,11,14,18.10
2015,08,09,11,15,18.10
2015,08,09,11,16,18.10
2015,08,09,11,17,18.10
2015,08,09,11,18,18.10
2015,08,09,11,19,18.10
2015,08,09,11,20,18.10
2015,08,09,11,21,18.00
2015,08,09,11,22,18.00
2015,08,09,11,23,18.00
2015,08,09,11,24,18.00
2015,08,09,11,25,18.10
2015,08,09,11,26,18.10
2015,08,09,11,27,18.10
2015,08,09,11,28,18.10
2015,08,09,11,29,18.20
2015,08,09,11,30,18.20
2015,08,09,11,31,18.30
2015,08,09,11,32,18.30
2015,08,09,11,33,18.30
2015,08,09,11,34,18.40
2015,08,09,11,35,18.40
2015,08,09,11,36,18.40
2015,08,09,11,37,18.30
2015,08,09,11,38,18.30
2015,08,09,11,39,18.30
2015,08,09,11,40,18.20
2015,08,09,11,41,18.20
2015,08,09,11,42,18.20
2015,08,09,11,43,18.20
2015,08,09,11,44,18.30
2015,08,09,11,45,18.40
2015,08,09,11,46,18.40
2015,08,09,11,47,18.40
2015,08,09,11,48,18.40
2015,08,09,11,49,18.40
2015,08,09,11,50,18.40
2015,08,09,11,51,18.40
2015,08,09,11,52,18.40
2015,08,09,11,53,18.30
2015,08,09,11,54,18.30
2015,08,09,11,55,18.30
2015,08,09,11,56,18.30
2015,08,09,11,57,18.30
2015,08,09,11,58,18.40
2015,08,09,11,59,18.40
2015,08,09,12,00,18.40
2015,08,09,12,01,18.40
2015,08,09,12,02,18.40
2015,08,09,12,03,18.30
2015,08,09,12,04,18.30
2015,08,09,12,05,18.10
2015,08,09,12,06,18.00
2015,08,09,12,07,18.00
2015,08,09,12,08,17.90
2015,08,09,12,09,17.90
2015,08,09,12,10,17.90
2015,08,09,12,11,17.80
2015,08,09,12,12,17.80
2015,08,09,12,13,17.80
2015,08,09,12,14,17.90
2015,08,09,12,15,18.00
2015,08,09,12,16,18.10
2015,08,09,12,17,18.10
2015,08,09,12,18,18.10
2015,08,09,12,19,18.00
2015,08,09,12,20,18.00
2015,08,09,12,21,17.90
2015,08,09,12,22,17.90
2015,08,09,12,23,18.00
2015,08,09,12,24,18.00
2015,08,09,12,25,17.90
2015,08,09,12,26,18.00
2015,08,09,12,27,18.00
2015,08,09,12,28,18.10
2015,08,09,12,29,18.20
2015,08,09,12,30,18.30
2015,08,09,12,31,18.30
2015,08,09,12,32,18.30
2015,08,09,12,33,18.30
2015,08,09,12,34,18.40
2015,08,09,12,35,18.50
2015,08,09,12,36,18.60
2015,08,09,12,37,18.70
2015,08,09,12,38,18.70
2015,08,09,12,39,18.80
2015,08,09,12,40,18.80
2015,08,09,12,41,18.90
2015,08,09,12,42,19.00
2015,08,09,12,43,19.10
2015,08,09,12,44,19.10
2015,08,09,12,45,19.10
2015,08,09,12,46,19.10
2015,08,09,12,47,19.10
2015,08,09,12,48,19.10
2015,08,09,12,49,19.00
2015,08,09,12,50,19.00
2015,08,09,12,51,19.10
2015,08,09,12,52,19.10
2015,08,09,12,53,19.20
2015,08,09,12,54,19.20
2015,08,09,12,55,19.20
2015,08,09,12,56,19.30
2015,08,09,12,57,19.40
2015,08,09,12,58,19.40
2015,08,09,12,59,19.40
2015,08,09,13,00,19.40
2015,08,09,13,01,19.40
2015,08,09,13,02,19.40
2015,08,09,13,03,19.40
2015,08,09,13,04,19.40
2015,08,09,13,05,19.50
2015,08,09,13,06,19.50
2015,08,09,13,07,19.40
2015,08,09,13,08,19.30
2015,08,09,13,09,19.40
2015,08,09,13,10,19.40
2015,08,09,13,11,19.40
2015,08,09,13,12,19.30
2015,08,09,13,13,19.20
2015,08,09,13,14,19.00
2015,08,09,13,15,18.90
2015,08,09,13,16,18.80
2015,08,09,13,17,18.80
2015,08,09,13,18,18.70
2015,08,09,13,19,18.70
2015,08,09,13,20,18.70
2015,08,09,13,21,18.70
2015,08,09,13,22,18.60
2015,08,09,13,23,18.50
2015,08,09,13,24,18.40
2015,08,09,13,25,18.40
2015,08,09,13,26,18.40
2015,08,09,13,27,18.40
2015,08,09,13,28,18.50
2015,08,09,13,29,18.60
2015,08,09,13,30,18.60
2015,08,09,13,31,18.60
2015,08,09,13,32,18.60
2015,08,09,13,33,18.70
2015,08,09,13,34,18.70
2015,08,09,13,35,18.70
2015,08,09,13,36,18.70
2015,08,09,13,37,18.70
2015,08,09,13,38,18.70
2015,08,09,13,39,18.80
2015,08,09,13,40,18.80
2015,08,09,13,41,18.80
2015,08,09,13,42,18.80
2015,08,09,13,43,18.80
2015,08,09,13,44,18.80
2015,08,09,13,45,18.80
2015,08,09,13,46,18.80
2015,08,09,13,47,18.90
2015,08,09,13,48,18.90
2015,08,09,13,49,18.80
2015,08,09,13,50,18.80
2015,08,09,13,51,18.70
2015,08,09,13,52,18.70
2015,08,09,13,53,18.60
2015,08,09,13,54,18.50
2015,08,09,13,55,18.40
2015,08,09,13,56,18.30
2015,08,09,13,57,18.20
2015,08,09,13,58,18.10
2015,08,09,13,59,18.00
2015,08,09,14,00,18.00
2015,08,09,14,01,18.00
2015,08,09,14,02,18.10
2015,08,09,14,03,18.20
2015,08,09,14,04,18.30
2015,08,09,14,05,18.40
2015,08,09,14,06,18.50
2015,08,09,14,07,18.60
2015,08,09,14,08,18.70
2015,08,09,14,09,18.70
2015,08,09,14,10,18.70
2015,08,09,14,11,18.70
2015,08,09,14,12,18.60
2015,08,09,14,13,18.70
2015,08,09,14,14,18.70
2015,08,09,14,15,18.60
2015,08,09,14,16,18.50
2015,08,09,14,17,18.40
2015,08,09,14,18,18.40
2015,08,09,14,19,18.30
2015,08,09,14,20,18.30
2015,08,09,14,21,18.30
2015,08,09,14,22,18.20
2015,08,09,14,23,18.20
2015,08,09,14,24,18.10
2015,08,09,14,25,18.10
2015,08,09,14,26,18.00
2015,08,09,14,27,17.90
2015,08,09,14,28,17.90
2015,08,09,14,29,17.90
2015,08,09,14,30,17.90
2015,08,09,14,31,17.90
2015,08,09,14,32,18.00
2015,08,09,14,33,18.10
2015,08,09,14,34,18.20
2015,08,09,14,35,18.30
2015,08,09,14,36,18.30
2015,08,09,14,37,18.30
2015,08,09,14,38,18.30
2015,08,09,14,39,18.40
2015,08,09,14,40,18.50
2015,08,09,14,41,18.50
2015,08,09,14,42,18.60
2015,08,09,14,43,18.60
2015,08,09,14,44,18.70
2015,08,09,14,45,18.60
2015,08,09,14,46,18.60
2015,08,09,14,47,18.50
2015,08,09,14,48,18.50
2015,08,09,14,49,18.50
2015,08,09,14,50,18.50
2015,08,09,14,51,18.60
2015,08,09,14,52,18.70
2015,08,09,14,53,18.80
2015,08,09,14,54,18.90
2015,08,09,14,55,18.90
2015,08,09,14,56,18.90
2015,08,09,14,57,19.00
2015,08,09,14,58,19.10
2015,08,09,14,59,19.20
2015,08,09,15,00,19.30
2015,08,09,15,01,19.40
2015,08,09,15,02,19.50
2015,08,09,15,03,19.50
2015,08,09,15,04,19.60
2015,08,09,15,05,19.70
2015,08,09,15,06,19.70
2015,08,09,15,07,19.80
2015,08,09,15,08,19.80
2015,08,09,15,09,19.70
2015,08,09,15,10,19.60
2015,08,09,15,11,19.60
2015,08,09,15,12,19.50
2015,08,09,15,13,19.40
2015,08,09,15,14,19.40
2015,08,09,15,15,19.30
2015,08,09,15,16,19.20
2015,08,09,15,17,19.30
2015,08,09,15,18,19.30
2015,08,09,15,19,19.30
2015,08,09,15,20,19.30
2015,08,09,15,21,19.30
2015,08,09,15,22,19.40
2015,08,09,15,23,19.40
2015,08,09,15,24,19.40
2015,08,09,15,25,19.50
2015,08,09,15,26,19.50
2015,08,09,15,27,19.60
2015,08,09,15,28,19.60
2015,08,09,15,29,19.70
2015,08,09,15,30,19.70
2015,08,09,15,31,19.80
2015,08,09,15,32,19.70
2015,08,09,15,33,19.70
2015,08,09,15,34,19.70
2015,08,09,15,35,19.70
2015,08,09,15,36,19.80
2015,08,09,15,37,19.80
2015,08,09,15,38,19.90
2015,08,09,15,39,19.90
2015,08,09,15,40,19.90
2015,08,09,15,41,20.00
2015,08,09,15,42,20.00
2015,08,09,15,43,20.10
2015,08,09,15,44,20.10
2015,08,09,15,45,20.20
2015,08,09,15,46,20.20
2015,08,09,15,47,20.30
2015,08,09,15,48,20.30
2015,08,09,15,49,20.30
2015,08,09,15,50,20.30
2015,08,09,15,51,20.30
2015,08,09,15,52,20.30
2015,08,09,15,53,20.30
2015,08,09,15,54,20.40
2015,08,09,15,55,20.40
2015,08,09,15,56,20.50
2015,08,09,15,57,20.50
2015,08,09,15,58,20.60
2015,08,09,15,59,20.70
2015,08,09,16,00,20.70
2015,08,09,16,01,20.80
2015,08,09,16,02,20.80
2015,08,09,16,03,20.90
2015,08,09,16,04,20.90
2015,08,09,16,05,20.90
2015,08,09,16,06,20.90
2015,08,09,16,07,20.90
2015,08,09,16,08,20.90
2015,08,09,16,09,20.80
2015,08,09,16,10,20.80
2015,08,09,16,11,20.80
2015,08,09,16,12,20.80
2015,08,09,16,13,20.80
2015,08,09,16,14,20.80
2015,08,09,16,15,20.70
2015,08,09,16,16,20.70
2015,08,09,16,17,20.70
2015,08,09,16,18,20.70
2015,08,09,16,19,20.50
2015,08,09,16,20,20.40
2015,08,09,16,21,20.30
2015,08,09,16,22,20.20
2015,08,09,16,23,20.10
2015,08,09,16,24,20.00
2015,08,09,16,25,20.00
2015,08,09,16,26,20.00
2015,08,09,16,27,20.00
2015,08,09,16,28,20.10
2015,08,09,16,29,20.10
2015,08,09,16,30,20.10
2015,08,09,16,31,20.20
2015,08,09,16,32,20.30
2015,08,09,16,33,20.40
2015,08,09,16,34,20.40
2015,08,09,16,35,20.40
2015,08,09,16,36,20.50
2015,08,09,16,37,20.60
2015,08,09,16,38,20.70
2015,08,09,16,39,20.70
2015,08,09,16,40,20.80
2015,08,09,16,41,20.80
2015,08,09,16,42,20.90
2015,08,09,16,43,20.90
2015,08,09,16,44,20.80
2015,08,09,16,45,20.80
2015,08,09,16,46,20.70
2015,08,09,16,47,20.70
2015,08,09,16,48,20.70
2015,08,09,16,49,20.60
2015,08,09,16,50,20.60
2015,08,09,16,51,20.60
2015,08,09,16,52,20.60
2015,08,09,16,53,20.60
2015,08,09,16,54,20.60
2015,08,09,16,55,20.60
2015,08,09,16,56,20.50
2015,08,09,16,57,20.50
2015,08,09,16,58,20.40
2015,08,09,16,59,20.40
2015,08,09,17,00,20.30
2015,08,09,17,01,20.20
2015,08,09,17,02,20.10
2015,08,09,17,03,20.10
2015,08,09,17,04,20.00
2015,08,09,17,05,19.90
2015,08,09,17,06,19.90
2015,08,09,17,07,19.80
2015,08,09,17,08,19.80
2015,08,09,17,09,19.80
2015,08,09,17,10,19.80
2015,08,09,17,11,19.80
2015,08,09,17,12,19.80
2015,08,09,17,13,19.80
2015,08,09,17,14,19.80
2015,08,09,17,15,19.80
2015,08,09,17,16,19.90
2015,08,09,17,17,19.90
2015,08,09,17,18,19.90
2015,08,09,17,19,19.90
2015,08,09,17,20,19.90
2015,08,09,17,21,19.90
2015,08,09,17,22,20.00
2015,08,09,17,23,20.00
2015,08,09,17,24,20.10
2015,08,09,17,25,20.10
2015,08,09,17,26,20.20
2015,08,09,17,27,20.20
2015,08,09,17,28,20.20
2015,08,09,17,29,20.20
2015,08,09,17,30,20.30
2015,08,09,17,31,20.30
2015,08,09,17,32,20.30
2015,08,09,17,33,20.40
2015,08,09,17,34,20.30
2015,08,09,17,35,20.30
2015,08,09,17,36,20.30
2015,08,09,17,37,20.30
2015,08,09,17,38,20.30
2015,08,09,17,39,20.30
2015,08,09,17,40,20.40
2015,08,09,17,41,20.40
2015,08,09,17,42,20.40
2015,08,09,17,43,20.50
2015,08,09,17,44,20.50
2015,08,09,17,45,20.50
2015,08,09,17,46,20.50
2015,08,09,17,47,20.50
2015,08,09,17,48,20.50
2015,08,09,17,49,20.50
2015,08,09,17,50,20.60
2015,08,09,17,51,20.60
2015,08,09,17,52,20.60
2015,08,09,17,53,20.60
2015,08,09,17,54,20.60
2015,08,09,17,55,20.70
2015,08,09,17,56,20.70
2015,08,09,17,57,20.70
2015,08,09,17,58,20.70
2015,08,09,17,59,20.70
2015,08,09,18,00,20.70
2015,08,09,18,01,20.70
2015,08,09,18,02,20.80
2015,08,09,18,03,20.80
2015,08,09,18,04,20.80
2015,08,09,18,05,20.80
2015,08,09,18,06,20.80
2015,08,09,18,07,20.70
2015,08,09,18,08,20.70
2015,08,09,18,09,20.70
2015,08,09,18,10,20.60
2015,08,09,18,11,20.60
2015,08,09,18,12,20.60
2015,08,09,18,13,20.60
2015,08,09,18,14,20.60
2015,08,09,18,15,20.60
2015,08,09,18,16,20.60
2015,08,09,18,17,20.60